YAMAL 402

Last updated on Thu Nov 21 2024 00:02:42 GMT+0000 (Coordinated Universal Time)

1 39022U 12070A 24325.22549441 .00000087 00000+0 00000+0 0 9996 2 39022 0.0170 282.1151 0005219 324.5289 309.1786 1.00271732 43640
UTC large
Height (km)
Speed (km/s)
/
Latitude / Longitude
Inclination (degrees)
Orbital Period (minutes)
Azimuth
Elevation
Range (km)
Doppler Factor

Next 0 passes for location: London (51.5072 / 0.1276)

Sorry there are no passes over London.